Location: NCO
(38.4212°N, 77.1417°W)
Time: 13:56:15
(UTC-04:00)

HTV-X1 - Visible Passes

Search period start: 15 May 2026 00:00
Search period end: 25 May 2026 00:00
Orbit: 372 x 383 km, 51.6° (Epoch: 15 May)

Date Brightness Start Highest point End Pass type
(mag) Time Alt. Az. Time Alt. Az. Time Alt. Az.
15 May ? 23:45:18 10° N 23:45:27 10° N 23:45:27 10° N visible
17 May ? 23:18:45 10° NNW 23:19:52 13° N 23:19:52 13° N visible
18 May ? 23:52:52 10° NW 23:53:05 11° NW 23:53:05 11° NW visible
19 May ? 22:52:16 10° NNW 22:54:13 18° NNE 22:54:13 18° NNE visible
20 May ? 21:51:57 10° N 21:53:13 12° NNE 21:54:28 10° NE visible
20 May ? 23:26:35 10° NW 23:27:26 17° NW 23:27:26 17° NW visible
21 May ? 22:25:49 10° NNW 22:28:28 26° NNE 22:28:35 26° NE visible
22 May ? 21:25:15 10° NNW 21:27:09 15° NNE 21:29:04 10° ENE visible
22 May ? 23:00:18 10° NW 23:01:49 26° NW 23:01:49 26° NW visible
23 May ? 21:59:20 10° NW 22:02:15 39° NNE 22:03:00 32° ENE visible
24 May ? 20:58:36 10° NNW 21:01:00 20° NNE 21:03:22 10° ENE visible
24 May ? 22:34:02 10° WNW 22:36:16 36° W 22:36:16 36° W visible
